Regional Weather Roundup
Issued by NWS

Home | Current Version | Previous Version | Graphics & Text | Print | Product List | Glossary On
Versions: 1 2 3 4 5 6 7 8 9 10 11 12 13 14 15 16 17 18 19 20 21 22 23 24 25 26 27 28 29 30 31 32 33 34 35 36 37 38 39 40 41 42 43 44 45 46 47 48 49 50
892
ASUS44 KMEG 251910
RWRTN
TENNESSEE HOURLY STATE WEATHER ROUNDUP
NATIONAL WEATHER SERVICE MEMPHIS TN
200 PM CDT MON JUL 25 2016

TNZ002-004-019-021-049-052-054-088>092-252000-
WEST TENNESSEE

CITY           SKY/WX    TMP DP  RH WIND       PRES   REMARKS
MEMPHIS INTL   PTSUNNY   94  75  54 S10G16    29.99F HX 105
NWS MEMPHIS      N/A     93 N/A N/A MISG        N/A
JACKSON        MOSUNNY   95  71  45 SW8       29.99F HX 102
DYERSBURG      MOSUNNY  N/A N/A N/A MISG        N/A
UNION CITY     MOSUNNY   93  79  62 SW6       29.97F HX 110
PARIS          MOSUNNY   90  75  62 SW8       30.00F HX 100
LEXINGTON      SUNNY     95  70  43 SW9       29.99F HX 101
$$

TNZ008-025-027-028-033-062-065-066-252000-
NORTH MIDDLE TENNESSEE

CITY           SKY/WX    TMP DP  RH WIND       PRES   REMARKS
NASHVILLE      PTSUNNY   93  74  53 CALM      30.01F HX 103
CLARKSVILLE    MOSUNNY   92  75  57 SW9       29.99F HX 103
SMYRNA         MOSUNNY   96  73  47 VRB7      30.01F HX 105
COOKEVILLE     MOSUNNY   95  75  52 W5        30.03F HX 107
CROSSVILLE     PTSUNNY   88  72  58 W9        30.10F HX  94
$$

TNZ061-075-076-078-094-096-097-252000-
SOUTH MIDDLE TENNESSEE

CITY           SKY/WX    TMP DP  RH WIND       PRES   REMARKS
FAYETTEVILLE   MOSUNNY   91  70  49 VRB5      30.04F HX  97
TULLAHOMA      SUNNY     93  70  46 SW7       30.06F HX  99
WINCHESTER     CLOUDY    79  73  83 S14       30.06S
MCMINNVILLE    SUNNY     93  73  52 VRB7      30.04F HX 102
COLUMBIA       MOSUNNY   99  70  39 SW10      30.00F HX 105
SHELBYVILLE    MOSUNNY   95  73  49 VRB6      30.03F HX 105
$$

TNZ017-018-042-046-047-252000-
NORTHEAST TENNESSEE

CITY           SKY/WX    TMP DP  RH WIND       PRES   REMARKS
TRI CITIES     MOSUNNY   95  68  41 SW9       30.05F HX  99
ELIZABETHTON   MOSUNNY   93  70  46 CALM      30.05F HX  99
$$

TNZ012-013-036-069-073-074-252000-
CENTRAL EAST TENNESSEE

CITY           SKY/WX    TMP DP  RH WIND       PRES   REMARKS
KNOXVILLE      MOSUNNY   95  68  41 MISG      30.02F HX  99
OAK RIDGE      MOSUNNY   95  68  41 VRB5      30.04F HX  99
GATLINBURG     MOSUNNY   86  66  51 S6        30.04F
MORRISTOWN     SUNNY     91  70  49 NE9       30.04F HX  97
$$

TNZ083-085-099-252000-
SOUTHEAST TENNESSEE

CITY           SKY/WX    TMP DP  RH WIND       PRES   REMARKS
CHATTANOOGA    MOSUNNY   94  67  41 SW6       30.01F HX  97
$$

SKY/WX REPORTED AS FAIR MEANS FEW OR NO CLOUDS BELOW
12 THOUSAND FEET.





USA.gov is the U.S. government's official web portal to all federal, state and local government web resources and services.